Weather History for LGPZ - October, 2012

Change the Weather History Date:

Saturday, October 13, 2012

  Actual Average Record
Temperature  
Mean Temperature 69 °F -  
Max Temperature 76 °F 68 °F 82 °F (2000)
Min Temperature 62 °F 55 °F 55 °F (2005)
Cooling Degree Days 4    
Growing Degree Days 19 (Base 50)    
Moisture  
Dew Point 62 °F    
Average Humidity 76    
Maximum Humidity 94    
Minimum Humidity 54    
Precipitation  
Precipitation 0.00 in - - ()
Sea Level Pressure  
Sea Level Pressure 29.99 in    
Wind  
Wind Speed 3 mph ()    
Max Wind Speed 14 mph    
Max Gust Speed -    
Visibility 6.2 miles    
Events Rain , Thunderstorm    
Averages and records for this station are not official NWS values.
T = Trace of Precipitation, MM = Missing Value Source: Averaged Metar Reports

Daily Weather History Graph

Daily Weather History Graph

Search for Another Location

Airport or City:

Trip Planner

Search our weather history database for the weather conditions in past years. The results will help you decide how hot, cold, wet, or windy it might be!

Date:

Astronomy

Oct. 13, 2012 Rise Set
Actual Time 7:44 AM EEST 7:01 PM EEST
Civil Twilight 7:17 AM EEST 7:27 PM EEST
Nautical Twilight 6:46 AM EEST 7:58 PM EEST
Astronomical Twilight 6:15 AM EEST 8:29 PM EEST
Moon 5:14 AM EEST (10/13) 5:33 PM EEST (10/13)
Length of Visible Light 12h 10m
Length of Day
11h 16m
Waning Crescent, 6% of the Moon is Illuminated
Oct 13
Waning Crescent
Oct 15
New
Oct 22
First Quarter
Oct 29
Full
Nov 7
Last Quarter

Hourly Weather History & Observations

Time (EEST) Temp. Dew Point Humidity Pressure Visibility Wind Dir Wind Speed Gust Speed Precip Events Conditions
12:50 AM 62.6 °F 60.8 °F 94% 30.01 in 6.2 mi ENE 13.8 mph - N/A Rain , Thunderstorm Light Thunderstorms and Rain
2:50 AM 64.4 °F 60.8 °F 88% 30.01 in 6.2 mi Calm Calm - N/A Rain , Thunderstorm Light Thunderstorms and Rain
3:00 AM 64 °F 60 °F 84% 30.03 in 6 mi Calm Calm - - Rain , Thunderstorm Thunderstorms and Rain
5:50 AM 62.6 °F 59.0 °F 88% 29.95 in 6.2 mi Calm Calm - N/A Rain Light Rain
6:50 AM 62.6 °F 59.0 °F 88% 29.98 in 6.2 mi Calm Calm - N/A   Mostly Cloudy
7:20 AM 62.6 °F 60.8 °F 94% 29.98 in 6.2 mi East 5.8 mph - N/A   Mostly Cloudy
7:50 AM 62.6 °F 60.8 °F 94% 29.98 in 6.2 mi Calm Calm - N/A   Mostly Cloudy
8:20 AM 64.4 °F 60.8 °F 88% 29.98 in 6.2 mi Calm Calm - N/A   Mostly Cloudy
8:50 AM 64.4 °F 60.8 °F 88% 30.01 in 6.2 mi Calm Calm - N/A   Mostly Cloudy
9:00 AM 65 °F 62 °F 85% 30.01 in 6 mi Calm Calm - -   Partly Cloudy
9:20 AM 66.2 °F 62.6 °F 88% 30.01 in 6.2 mi East 5.8 mph - N/A   Mostly Cloudy
9:50 AM 68.0 °F 62.6 °F 83% 30.01 in 6.2 mi East 8.1 mph - N/A   Scattered Clouds
10:20 AM 68.0 °F 62.6 °F 83% 30.01 in 6.2 mi East 6.9 mph - N/A   Scattered Clouds
10:50 AM 71.6 °F 62.6 °F 73% 30.01 in 6.2 mi ESE 4.6 mph - N/A   Scattered Clouds
11:20 AM 71.6 °F 60.8 °F 69% 30.01 in 6.2 mi Calm Calm - N/A   Scattered Clouds
11:50 AM 73.4 °F 62.6 °F 69% 30.01 in 6.2 mi Calm Calm - N/A   Scattered Clouds
12:20 PM 73.4 °F 62.6 °F 69% 30.01 in 6.2 mi NE 4.6 mph - N/A   Scattered Clouds
12:50 PM 75.2 °F 62.6 °F 65% 30.01 in 6.2 mi NNE 4.6 mph - N/A   Scattered Clouds
1:20 PM 75.2 °F 62.6 °F 65% 30.01 in 6.2 mi Calm Calm - N/A   Scattered Clouds
1:50 PM 75.2 °F 62.6 °F 65% 30.01 in 6.2 mi Calm Calm - N/A   Scattered Clouds
2:20 PM 75.2 °F 62.6 °F 65% 30.01 in 6.2 mi Calm Calm - N/A   Scattered Clouds
2:50 PM 77.0 °F 62.6 °F 61% 29.98 in 6.2 mi SSW 4.6 mph - N/A   Scattered Clouds
3:00 PM 76 °F 63 °F 54% 30.00 in 6 mi SSW 4.6 mph - -   Partly Cloudy
3:20 PM 75.2 °F 60.8 °F 61% 29.98 in 6.2 mi Calm Calm - N/A   Mostly Cloudy
3:50 PM 75.2 °F 62.6 °F 65% 29.98 in 6.2 mi Calm Calm - N/A   Mostly Cloudy
4:20 PM 75.2 °F 60.8 °F 61% 29.98 in 6.2 mi Calm Calm - N/A   Mostly Cloudy
4:50 PM 75.2 °F 60.8 °F 61% 29.98 in 6.2 mi Calm Calm - N/A   Mostly Cloudy
5:20 PM 75.2 °F 59.0 °F 57% 29.95 in 6.2 mi Calm Calm - N/A   Mostly Cloudy
5:50 PM 73.4 °F 60.8 °F 65% 29.95 in 6.2 mi Calm Calm - N/A   Mostly Cloudy
6:20 PM 73.4 °F 60.8 °F 65% 29.95 in 6.2 mi Calm Calm - N/A   Mostly Cloudy
6:50 PM 71.6 °F 62.6 °F 73% 29.95 in 6.2 mi East 5.8 mph - N/A   Mostly Cloudy
7:20 PM 69.8 °F 62.6 °F 78% 29.95 in 6.2 mi East 5.8 mph - N/A   Mostly Cloudy
7:50 PM 69.8 °F 62.6 °F 78% 29.95 in 6.2 mi Calm Calm - N/A   Mostly Cloudy
8:20 PM 68.0 °F 62.6 °F 83% 29.98 in 6.2 mi Calm Calm - N/A   Mostly Cloudy
8:50 PM 69.8 °F 64.4 °F 83% 29.98 in 6.2 mi Calm Calm - N/A   Mostly Cloudy
9:00 PM 70 °F 64 °F 77% 29.98 in 6 mi Calm Calm - -   Partly Cloudy
9:50 PM 69.8 °F 64.4 °F 83% 29.95 in 6.2 mi Calm Calm - N/A   Mostly Cloudy
10:50 PM 69.8 °F 64.4 °F 83% 29.95 in 6.2 mi Calm Calm - N/A   Mostly Cloudy
11:50 PM 69.8 °F 62.6 °F 78% 29.95 in 6.2 mi Calm Calm - N/A   Mostly Cloudy